Temp
9 9 8 9 9 10 10 9 9 8 8 7 7 7 7 7 6 6 6 7 6 7 5 5 5 4 4 4 4 4 3 3 3 3 2 3 3 2 2 2 2 2 2 2
8 8 8 8 9 10 10 9 8 8 8 7 7 7 7 7 7 6 5 5 5 6 6 5 4 5 4 4 4 4 3 3 3 3 2 2 2 2 2 2 2 1 1 1
8 9 9 9 9 10 10 10 9 9 8 7 7 7 7 8 7 5 4 4 4 5 5 6 5 4 4 3 3 3 3 2 2 2 2 1 1 1 1 1 1 1 1 0
8 8 9 9 9 9 10 9 9 8 8 8 8 7 7 7 7 6 4 3 4 5 6 6 6 4 4 3 2 2 2 2 2 1 1 1 0 0 0 -0 -0 -0 -1 0
7 8 8 8 8 9 9 8 8 8 8 8 8 8 9 8 7 7 5 4 4 4 5 5 5 5 4 3 2 2 2 2 1 1 1 0 -0 -1 -1 -1 -2 -1 -2 -2
7 7 8 8 8 8 8 8 8 8 8 7 9 8 9 9 10 8 7 6 5 4 4 4 4 5 4 3 2 1 1 1 1 1 1 1 0 -0 -1 -2 -2 -3 -3 -3
7 7 7 7 7 7 7 6 7 4 3 4 9 9 9 9 9 8 8 8 7 6 5 4 4 4 3 2 1 0 0 0 0 0 -0 -1 -1 -2 -2 -2 -3 -3 -3 -4
6 6 6 6 6 7 7 6 6 5 2 7 9 9 9 9 8 7 7 7 6 6 5 5 4 3 2 2 2 1 -0 -1 -1 -1 -1 -2 -2 -2 -3 -3 -3 -3 -3 -4
6 6 6 6 6 7 6 6 6 6 6 6 8 9 8 8 8 8 8 7 6 5 5 4 3 2 1 0 -0 -0 -0 -0 -1 -1 -2 -2 -2 -3 -3 -4 -4 -4 -4 -4
5 6 5 5 6 6 6 6 5 6 1 3 7 9 9 9 9 9 7 7 6 5 4 4 3 2 1 -1 -2 -1 -1 0 -1 -2 -2 -2 -3 -3 -3 -4 -4 -4 -4 -4
5 5 4 5 6 6 5 5 5 5 5 3 -0 7 7 8 8 8 7 6 5 4 4 3 2 1 -1 -1 -2 -2 -1 -0 -1 -2 -3 -3 -3 -3 -4 -4 -4 -4 -4 -4
5 5 5 5 5 5 6 5 5 5 5 4 4 6 7 7 6 6 6 6 5 3 3 2 1 0 -0 -1 -1 -1 0 -1 -2 -2 -3 -3 -3 -4 -4 -4 -4 -4 -5 -4
4 3 3 3 4 5 4 5 5 4 4 5 4 6 7 6 6 6 5 5 4 3 2 2 1 0 -0 -0 -0 -0 -1 -2 -2 -3 -3 -4 -4 -4 -4 -5 -5 -5 -5 -5
4 3 4 5 5 5 5 5 4 3 3 4 4 5 6 6 5 5 5 4 3 3 2 2 1 1 -0 -0 -0 -1 -2 -2 -3 -3 -4 -4 -5 -5 -5 -5 -5 -5 -6 -6
3 3 3 4 4 4 4 4 4 4 5 3 6 4 5 4 4 4 4 3 3 2 2 1 0 -1 -1 -1 -2 -2 -2 -3 -3 -4 -4 -5 -5 -5 -5 -6 -6 -6 -6 -6
4 3 3 3 3 3 3 3 4 4 4 4 5 5 6 4 3 3 3 3 2 2 1 1 0 -0 -1 -1 -2 -2 -3 -3 -4 -4 -5 -5 -5 -6 -6 -6 -7 -7 -7 -7
3 3 2 2 2 2 2 5 4 4 4 4 4 5 4 3 2 2 2 2 1 1 1 0 -0 -1 -1 -2 -2 -3 -4 -4 -5 -5 -6 -6 -6 -6 -7 -7 -7 -8 -8 -8
2 2 1 1 1 -3 3 4 3 3 4 3 4 3 2 2 1 1 1 1 0 -0 -1 -1 -1 -2 -3 -3 -4 -4 -4 -5 -6 -6 -7 -7 -7 -7 -7 -8 -8 -9 -10 -10
1 0 0 1 0 2 3 3 4 3 3 3 3 3 1 1 1 1 1 1 0 -0 -0 -1 -3 -3 -3 -4 -4 -5 -5 -6 -6 -7 -7 -7 -7 -8 -9 -9 -10 -11 -12 -14
0 -0 -0 -0 -0 -2 2 3 3 2 3 3 2 2 2 2 1 0 0 -0 -1 -1 -2 -3 -3 -4 -4 -5 -5 -6 -6 -7 -7 -7 -8 -8 -9 -9 -10 -11 -11 -13 -15 -16
0 -1 -0 -1 -1 0 1 2 2 2 2 2 2 2 1 1 1 0 -0 -1 -2 -3 -3 -4 -4 -5 -5 -6 -6 -7 -7 -8 -8 -8 -9 -9 -10 -10 -12 -14 -15 -15 -17 -18
2 0 -0 -2 -2 -1 2 1 1 2 2 1 1 1 1 1 0 -1 -1 -2 -3 -3 -4 -4 -5 -5 -6 -6 -7 -7 -8 -8 -9 -9 -9 -10 -11 -13 -15 -16 -15 -17 -18 -18
1 2 1 1 1 1 2 1 1 1 1 1 1 1 0 -1 -1 -2 -2 -3 -3 -4 -5 -5 -6 -7 -7 -7 -8 -8 -8 -9 -9 -9 -11 -12 -14 -15 -16 -16 -17 -18 -19 -19
1 1 0 0 1 1 1 1 0 0 0 0 -0 -1 -1 -1 -2 -2 -3 -4 -4 -5 -6 -6 -7 -7 -8 -8 -8 -9 -9 -9 -10 -11 -12 -13 -15 -15 -16 -17 -18 -19 -19 -19
0 1 0 -0 0 0 0 -0 -0 -0 -1 -1 -1 -2 -2 -2 -3 -3 -4 -5 -5 -6 -7 -7 -7 -8 -9 -9 -9 -9 -10 -11 -11 -12 -13 -14 -15 -16 -17 -17 -18 -19 -19 -19
0 0 0 0 0 0 -0 -0 -1 -1 -1 -1 -2 -2 -2 -3 -4 -5 -6 -6 -7 -7 -7 -8 -9 -9 -9 -9 -9 -10 -11 -12 -12 -13 -14 -16 -17 -18 -18 -19 -19 -19 -19 -19
Height
3203 3205 3206 3207 3206 3207 3208 3209 3211 3214 3217 3219 3218 3217 3218 3219 3217 3217 3216 3217 3217 3218 3219 3220 3219 3219 3218 3216 3215 3214 3211 3209 3208 3205 3203 3201 3199 3197 3195 3193 3190 3188 3185 3183
3206 3206 3208 3209 3209 3210 3209 3209 3211 3214 3216 3217 3217 3218 3218 3217 3216 3216 3216 3216 3216 3216 3217 3218 3217 3216 3215 3214 3213 3212 3211 3208 3207 3204 3201 3199 3196 3195 3193 3191 3189 3186 3183 3180
3203 3208 3208 3210 3210 3210 3211 3210 3212 3214 3215 3216 3218 3217 3215 3216 3216 3215 3215 3216 3214 3213 3214 3215 3216 3215 3215 3214 3213 3211 3210 3207 3206 3203 3200 3197 3194 3192 3190 3188 3185 3183 3181 3178
3205 3206 3208 3211 3212 3211 3210 3212 3213 3213 3215 3216 3216 3215 3210 3211 3213 3212 3213 3213 3212 3212 3212 3213 3213 3214 3213 3213 3211 3209 3207 3206 3203 3201 3199 3196 3193 3190 3187 3184 3181 3178 3176 3174
3204 3205 3206 3208 3211 3211 3212 3213 3215 3215 3214 3214 3213 3213 3206 3207 3208 3209 3210 3211 3211 3211 3210 3210 3211 3210 3210 3210 3208 3205 3204 3202 3201 3199 3196 3194 3191 3188 3185 3182 3180 3177 3173 3170
3203 3204 3205 3208 3210 3211 3213 3213 3214 3214 3215 3212 3208 3210 3203 3201 3202 3206 3208 3209 3209 3209 3208 3206 3206 3207 3206 3206 3205 3203 3200 3198 3196 3194 3193 3190 3187 3185 3182 3179 3177 3174 3172 3169
3200 3204 3205 3206 3209 3211 3212 3214 3214 3215 3213 3209 3204 3203 3200 3199 3201 3203 3203 3205 3206 3206 3206 3205 3203 3203 3203 3202 3202 3200 3198 3195 3192 3190 3189 3187 3186 3183 3180 3176 3173 3170 3168 3165
3198 3203 3203 3204 3206 3207 3210 3213 3212 3212 3212 3206 3203 3201 3198 3196 3196 3197 3200 3201 3203 3203 3203 3202 3201 3200 3199 3198 3199 3196 3195 3192 3189 3189 3188 3187 3184 3182 3178 3174 3171 3167 3164 3160
3196 3197 3199 3201 3204 3207 3208 3210 3211 3211 3210 3208 3203 3200 3198 3197 3198 3196 3195 3196 3197 3198 3199 3199 3198 3196 3194 3192 3192 3191 3189 3188 3187 3186 3184 3181 3179 3177 3175 3171 3167 3163 3159 3155
3193 3196 3197 3198 3202 3204 3206 3208 3209 3210 3212 3210 3199 3197 3194 3193 3195 3196 3194 3193 3194 3195 3196 3195 3195 3194 3192 3190 3188 3186 3184 3183 3183 3182 3180 3177 3175 3171 3166 3163 3160 3156 3151 3147
3190 3194 3195 3196 3197 3198 3201 3203 3205 3207 3206 3205 3203 3195 3193 3192 3193 3195 3196 3194 3193 3192 3193 3193 3191 3191 3188 3184 3182 3181 3179 3179 3178 3175 3173 3171 3168 3164 3160 3155 3151 3146 3142 3136
3188 3190 3191 3195 3195 3196 3195 3197 3200 3201 3202 3199 3197 3193 3192 3189 3189 3190 3190 3191 3191 3191 3191 3190 3188 3185 3182 3180 3178 3177 3177 3177 3175 3170 3166 3162 3159 3156 3152 3147 3142 3137 3131 3126
3184 3186 3189 3191 3193 3191 3191 3191 3193 3195 3196 3192 3193 3187 3189 3189 3189 3187 3187 3186 3187 3187 3185 3184 3181 3179 3177 3174 3173 3173 3173 3173 3170 3165 3160 3155 3151 3147 3143 3138 3133 3127 3121 3115
3182 3182 3184 3186 3185 3186 3186 3186 3188 3190 3190 3184 3182 3183 3185 3186 3185 3185 3182 3181 3181 3181 3180 3179 3177 3175 3173 3171 3170 3169 3169 3166 3162 3158 3153 3148 3142 3138 3134 3129 3122 3115 3110 3104
3178 3178 3182 3181 3182 3182 3183 3183 3183 3182 3182 3181 3179 3180 3182 3178 3180 3179 3177 3178 3176 3175 3174 3172 3171 3170 3169 3168 3167 3166 3163 3159 3155 3151 3146 3141 3135 3129 3124 3118 3112 3106 3099 3092
3174 3176 3176 3176 3179 3179 3176 3177 3176 3176 3177 3173 3174 3172 3176 3176 3174 3173 3172 3172 3171 3170 3169 3167 3166 3166 3165 3165 3163 3160 3156 3152 3147 3142 3138 3133 3127 3121 3115 3109 3102 3095 3087 3081
3171 3173 3173 3173 3174 3173 3170 3168 3169 3168 3167 3167 3166 3168 3169 3168 3168 3168 3166 3165 3165 3164 3163 3162 3161 3161 3161 3158 3156 3153 3148 3144 3140 3135 3129 3123 3118 3112 3106 3099 3091 3083 3076 3068
3167 3168 3171 3170 3171 3169 3163 3162 3162 3163 3163 3161 3160 3161 3161 3163 3161 3163 3161 3159 3159 3157 3156 3157 3156 3154 3152 3149 3147 3144 3140 3136 3131 3126 3119 3114 3108 3102 3095 3087 3079 3071 3062 3056
3164 3164 3166 3167 3166 3162 3160 3159 3159 3158 3160 3158 3155 3156 3156 3156 3157 3157 3155 3154 3153 3153 3152 3152 3150 3148 3146 3143 3141 3137 3133 3128 3123 3117 3110 3104 3097 3089 3082 3075 3067 3059 3052 3044
3159 3159 3163 3163 3163 3159 3156 3156 3155 3155 3154 3153 3153 3153 3153 3152 3152 3152 3149 3149 3150 3150 3148 3147 3145 3142 3139 3136 3133 3129 3124 3119 3112 3105 3099 3092 3085 3078 3071 3064 3057 3049 3043 3035
3153 3154 3156 3157 3157 3154 3152 3153 3152 3154 3155 3149 3150 3151 3150 3151 3151 3148 3147 3146 3146 3144 3143 3142 3140 3137 3133 3129 3125 3121 3115 3109 3102 3095 3089 3082 3075 3067 3059 3052 3045 3038 3032 3025
3148 3149 3150 3152 3154 3152 3148 3148 3150 3150 3147 3146 3146 3146 3147 3147 3146 3145 3143 3142 3141 3139 3138 3136 3134 3130 3125 3121 3116 3110 3105 3099 3092 3086 3079 3072 3065 3057 3050 3042 3036 3030 3023 3016
3144 3145 3146 3148 3145 3144 3145 3145 3144 3144 3143 3142 3143 3143 3142 3142 3141 3140 3139 3137 3135 3132 3131 3128 3126 3122 3118 3112 3106 3101 3095 3089 3083 3076 3069 3062 3055 3048 3040 3032 3026 3019 3014 3007
3138 3140 3141 3143 3142 3140 3141 3141 3140 3139 3138 3139 3138 3138 3138 3137 3136 3135 3134 3132 3130 3127 3124 3122 3118 3113 3109 3103 3098 3092 3085 3079 3073 3065 3058 3051 3044 3037 3030 3023 3016 3010 3005 2999
3134 3136 3137 3138 3137 3136 3136 3136 3135 3134 3134 3133 3133 3134 3133 3131 3130 3129 3128 3126 3124 3121 3117 3114 3111 3106 3100 3095 3090 3082 3075 3068 3060 3054 3047 3039 3032 3026 3018 3012 3006 3001 2997 2990
3129 3130 3132 3132 3133 3132 3131 3131 3131 3131 3130 3129 3128 3128 3128 3127 3125 3123 3122 3120 3118 3114 3111 3108 3103 3098 3092 3086 3080 3072 3064 3057 3050 3042 3035 3028 3020 3013 3007 3001 2995 2994 2988 2981
Wind_Speed
9 10 10 10 1 3 15 13 9 3 3 2 3 15 15 13 13 10 8 7 7 7 6 5 6 6 10 12 14 15 17 16 15 14 14 16 15 14 13 12 13 14 15 15
10 9 9 13 10 2 8 15 13 4 5 4 9 15 19 18 14 10 9 9 10 10 7 7 9 12 12 15 15 16 15 16 16 17 17 17 17 16 15 15 14 15 15 16
13 10 11 12 6 7 6 14 11 4 4 12 10 15 23 17 14 12 11 11 14 15 14 13 10 11 12 13 14 14 14 15 15 15 16 17 19 20 20 19 18 16 15 15
9 13 12 9 8 8 11 6 6 7 8 6 15 7 27 29 18 15 16 15 17 17 17 17 15 12 14 12 13 14 16 14 16 16 16 17 19 20 21 22 24 23 22 20
10 13 11 13 10 11 10 10 9 6 8 12 14 10 11 25 27 20 19 20 21 21 20 20 18 17 16 12 14 16 17 16 15 16 17 17 18 19 21 22 21 23 25 27
10 12 15 18 11 16 8 10 10 10 9 9 20 21 8 21 15 19 16 19 20 21 22 22 22 19 18 17 16 15 17 18 18 19 20 23 24 25 25 24 24 24 25 27
10 12 16 15 15 15 11 6 3 2 2 8 7 12 22 15 17 13 12 12 15 18 20 22 24 22 22 22 16 16 18 19 20 23 23 24 26 27 28 29 29 29 29 30
12 7 17 12 15 13 14 9 2 3 1 5 8 6 7 7 15 16 17 16 17 20 23 24 24 25 26 23 18 19 19 17 18 21 22 24 26 27 28 28 30 31 33 34
10 9 10 15 16 14 12 11 11 7 11 5 8 9 12 15 17 19 20 17 22 24 25 26 24 25 26 24 23 24 23 19 21 23 24 26 28 29 30 30 32 33 35 36
6 6 11 14 16 17 13 15 9 8 0 3 8 10 9 16 19 16 18 20 20 22 24 26 26 25 24 25 27 29 28 24 24 24 27 29 31 33 34 34 35 37 39 40
16 12 8 11 15 20 20 18 12 8 7 5 2 2 2 4 8 12 11 16 19 22 24 26 27 25 24 28 31 31 31 29 28 28 31 32 34 36 37 37 39 42 44 46
19 10 11 13 12 11 22 25 21 13 6 10 4 10 7 7 10 12 15 16 16 19 22 25 27 28 29 32 34 34 31 30 29 32 35 36 38 39 39 41 43 46 47 46
16 9 5 5 16 18 22 25 27 28 21 23 6 8 6 9 12 17 18 18 18 20 25 29 32 33 33 35 36 35 33 32 32 34 36 38 40 41 43 46 47 47 45 44
16 15 14 11 7 5 9 22 27 27 21 25 29 23 21 21 24 23 21 21 21 23 28 32 33 35 36 37 37 37 37 34 34 35 37 39 41 45 48 50 48 45 45 45
17 18 20 22 22 22 20 17 15 24 31 32 34 27 22 10 6 17 22 20 23 24 28 30 33 34 36 39 38 39 35 34 34 37 37 40 44 49 51 48 46 46 47 49
17 17 18 23 24 25 26 27 30 31 31 33 34 37 31 34 28 22 26 27 26 27 29 33 35 37 38 38 36 33 31 34 36 38 40 44 48 50 47 46 46 48 51 52
17 17 18 16 19 17 16 31 27 29 34 35 34 31 24 21 18 22 25 27 28 28 32 33 33 33 31 30 28 28 30 33 37 40 45 48 49 47 46 47 50 52 53 54
12 14 14 9 10 3 15 17 14 16 18 22 26 25 21 19 18 20 24 25 28 30 31 31 29 26 27 27 27 28 32 36 40 44 47 47 46 47 48 50 52 52 52 52
17 16 12 6 11 16 15 15 19 20 19 20 22 14 24 25 25 25 27 29 30 29 26 24 23 24 26 27 29 32 36 40 44 45 45 46 47 50 51 52 50 50 51 50
22 23 21 13 6 5 2 6 8 10 17 16 17 18 26 30 27 26 26 27 25 21 19 20 22 24 26 29 33 37 40 43 44 45 46 48 51 52 52 50 49 50 49 49
25 27 27 25 12 8 15 20 18 13 15 15 14 13 18 24 25 26 25 22 19 20 22 21 23 24 28 32 36 39 41 42 43 45 48 51 52 53 51 49 50 50 49 47
18 17 21 20 11 13 16 18 15 13 14 16 16 15 14 15 18 19 17 18 21 23 23 24 25 27 31 35 39 41 41 43 45 49 51 52 51 49 48 50 52 48 45 48
17 20 10 15 8 10 9 12 16 17 17 18 16 15 16 15 15 16 19 21 23 24 24 25 28 31 33 38 39 40 42 45 48 50 49 47 47 45 47 50 49 46 43 40
22 20 18 17 20 19 19 20 21 23 22 20 18 17 15 16 17 19 20 22 22 22 24 28 32 35 38 38 39 42 45 48 48 46 46 46 46 46 46 44 42 39 38 37
24 19 20 21 20 22 22 18 19 21 19 18 20 18 17 17 19 22 21 20 21 24 28 32 34 37 37 39 40 44 46 45 46 46 46 46 44 42 42 38 35 36 38 43
22 22 20 20 22 19 17 15 14 14 16 17 18 18 18 19 20 20 19 20 25 30 31 33 35 36 37 40 43 44 46 47 46 47 45 43 42 42 38 37 38 39 42 41
Wind_Direction
111 118 146 141 9 319 274 194 151 200 267 137 243 267 282 293 245 240 241 248 262 271 252 275 300 348 348 351 353 355 347 346 349 345 338 334 331 328 324 320 317 317 318 322
160 207 187 189 227 270 121 139 151 213 225 185 245 262 270 282 254 245 247 258 271 281 301 302 316 332 342 337 338 341 342 339 340 336 334 335 333 333 331 327 325 324 326 326
180 203 205 208 221 167 168 184 190 234 233 190 197 252 260 269 246 234 245 265 277 296 310 316 313 310 317 319 323 330 338 335 336 333 333 335 335 334 336 335 333 332 329 329
207 211 211 224 208 209 176 158 189 221 223 198 206 248 246 254 249 229 230 242 264 280 292 301 304 300 298 304 312 325 328 330 330 332 335 335 336 336 337 337 335 336 335 330
207 210 196 173 217 227 171 192 197 236 249 288 225 243 287 236 238 236 223 234 248 262 276 284 296 300 302 300 307 314 317 321 321 323 328 335 337 336 334 333 331 332 336 334
218 197 186 189 208 230 224 210 202 211 242 268 254 225 267 224 259 241 235 237 245 254 265 276 284 296 304 301 299 302 308 316 318 321 329 336 337 337 334 332 332 331 328 329
214 208 201 208 212 224 235 163 213 266 235 236 345 205 234 264 236 238 256 265 269 270 270 273 278 287 294 293 295 292 303 308 316 322 335 334 333 333 330 328 326 324 324 323
208 212 208 212 222 214 209 189 229 220 266 312 205 245 232 211 205 225 235 262 262 260 271 278 281 281 284 287 293 300 298 295 300 315 323 323 325 326 323 318 317 317 316 317
200 211 206 217 220 213 191 214 234 257 285 267 241 252 217 226 222 224 243 226 239 250 264 273 278 278 282 286 293 293 290 288 298 310 315 316 319 319 316 313 313 312 312 311
191 208 215 220 222 222 212 212 215 206 176 261 277 268 264 241 243 241 233 234 236 247 254 262 269 273 279 275 278 285 289 297 304 306 311 314 315 314 313 312 311 311 311 311
224 223 223 233 228 227 217 212 215 206 225 207 261 249 240 249 258 253 231 234 233 244 254 259 266 269 264 266 273 280 290 301 304 306 308 311 312 312 312 312 312 313 313 312
232 240 244 258 260 244 228 229 227 224 214 224 250 260 265 220 229 250 255 263 253 243 250 252 257 259 261 265 271 279 295 301 299 301 307 309 310 310 310 310 311 312 311 310
225 219 189 246 256 248 234 234 235 237 244 248 205 250 248 263 256 254 260 261 262 242 236 243 253 258 260 267 275 286 293 294 295 301 304 307 308 309 310 310 311 311 310 309
233 219 230 244 259 261 246 249 239 235 237 244 246 253 261 278 283 283 260 239 245 246 243 249 257 262 264 268 278 283 288 292 295 299 303 306 308 309 309 311 311 310 310 308
238 238 239 246 254 264 263 265 262 248 255 245 269 271 276 251 299 273 274 259 258 258 258 258 256 258 263 267 272 281 287 292 297 301 304 306 307 308 310 311 311 311 310 309
251 243 255 262 260 263 269 269 265 266 263 261 268 272 280 265 283 271 271 265 264 266 264 263 262 263 265 272 280 284 293 298 301 303 306 307 306 309 311 311 311 309 309 309
248 249 255 261 267 264 257 271 275 277 276 277 272 283 283 265 264 262 263 265 262 266 275 275 276 277 280 281 286 292 295 298 301 304 306 306 309 309 310 311 311 310 310 310
260 247 244 257 254 263 267 273 284 278 278 281 284 279 280 270 258 252 256 256 263 271 280 283 286 290 289 288 292 294 299 301 303 303 305 307 309 311 312 311 311 311 310 312
249 226 234 234 231 270 248 265 279 282 284 274 275 267 250 260 259 254 257 265 272 283 290 294 291 286 289 291 296 300 302 303 303 304 307 311 313 312 312 312 313 313 317 319
225 222 232 224 237 238 275 294 283 285 283 278 265 240 244 261 264 267 274 275 280 289 290 286 286 288 292 296 299 302 305 306 307 310 312 312 311 311 311 313 315 318 320 315
214 216 228 233 237 258 263 272 278 275 282 288 279 265 256 255 266 275 281 283 288 282 283 287 288 291 296 299 301 305 307 308 310 311 310 311 311 312 314 316 315 318 318 316
233 217 226 230 226 257 264 269 273 292 290 284 287 284 284 282 279 281 281 278 277 280 285 287 290 296 300 305 307 308 310 310 309 310 311 311 312 313 313 311 314 314 310 312
236 241 244 229 244 245 270 282 298 290 284 287 289 290 296 291 285 281 280 280 284 288 288 293 299 303 303 305 308 310 309 310 311 310 312 313 312 312 309 307 310 309 309 313
242 247 235 252 264 274 279 287 282 281 287 293 293 296 292 285 284 284 281 283 285 287 294 301 302 302 307 308 309 311 310 309 312 311 310 310 308 307 307 308 308 311 314 316
242 249 253 255 267 282 287 284 282 290 295 291 289 285 282 283 283 286 290 289 292 300 298 299 303 305 307 310 311 308 309 310 310 312 312 310 310 311 312 311 310 310 310 311
233 247 256 270 283 281 289 296 297 298 294 287 282 281 284 288 291 292 291 294 297 295 298 301 304 308 309 308 309 310 310 313 315 315 314 313 315 317 316 311 307 305 306 306